HAIYANG-1C (43609 NORAD) Tracking and Keplerian Element Data

This shows tracking and keplerian element data for the satellite.

Feedback or suggestion? Click here.




ElementValue
Catalog43609
NameHAIYANG-1C
Epoch Orbit425
Epoch Day279.76321
Epoch Year2018
RAAN350.97
Inclination98.6002
Eccentricity0.001282
Argument of Perigee169.3259
Mean Anonmoly190.819
Mean Motion14.34135528
Decay Rate-1.7E-07
L11 43609U 18068A 18279.76321000 -.00000017 00000-0 97829-5 0 9990
L22 43609 98.6002 350.9700 0012820 169.3259 190.8190 14.34135528 4256

Live tracking and technical data element details for HAIYANG-1C (NORAD 43609). HAIYANG-1C can be tracked NOW for your location showing map with azimuth and elevation plus other details from your city location.

Track the satellite on the map from your city or location and see movement details for azimuth, elevation, latitude, longitude, range, height, and movement on the map or in text.







IsCatalogInMostPopularTable: catalog: 43609, numindb: 32
Update: records affected: 1



GetName: 43609 HAIYANG-1C

Hit Count: updated at: Thu, 15 Nov 2018 04:50:04 GMT